AO-07 1 07530U 74089B 26035.99692857 -.00000052 00000-0 -34261-4 0 9993 2 07530 101.9971 47.8362 0012273 24.7267 32.9044 12.53695615343957 UO-11 1 14781U 84021B 26035.84430842 .00002549 00000-0 26755-3 0 9993 2 14781 97.7894 3.0643 0006029 260.5474 99.5062 14.90378659237418 AO-27 1 22825U 93061C 26036.12172876 .00000161 00000-0 78403-4 0 9993 2 22825 98.7052 103.4956 0009303 124.4758 235.7304 14.30901685688111 FO-29 1 24278U 96046B 26036.04243748 -.00000009 00000-0 23797-4 0 9999 2 24278 98.5424 262.8716 0350862 79.3223 284.7218 13.53266517455295 GO-32 1 25397U 98043D 26035.93596891 .00000113 00000-0 68849-4 0 9990 2 25397 98.9983 25.4168 0000671 185.1041 175.0130 14.24396442432504 ISS 1 25544U 98067A 26036.05036301 .00011388 00000-0 21868-3 0 9994 2 25544 51.6315 233.7051 0011125 65.7526 294.4623 15.48402345551271 NO-44 1 26931U 01043C 26035.93934210 .00000219 00000-0 11286-3 0 9999 2 26931 67.0487 226.3112 0007053 266.4469 93.5826 14.31892742271514 SO-50 1 27607U 02058C 26035.70306098 .00002263 00000-0 28517-3 0 9995 2 27607 64.5527 178.7782 0074309 286.6550 72.6407 14.82645923244817 CO-55 1 27844U 03031E 26036.17756862 .00000442 00000-0 21069-3 0 9992 2 27844 98.6774 46.3829 0009139 203.0782 156.9987 14.24237805172881 CO-57 1 27848U 03031J 26035.95980955 .00000380 00000-0 18611-3 0 9993 2 27848 98.6803 45.9868 0008714 223.0239 137.0259 14.23537045172568 RS-22 1 27939U 03042A 26036.33416875 .00001136 00000-0 18442-3 0 9996 2 27939 98.3394 217.0023 0010857 332.4019 147.8243 14.73155214196138 CO-58 1 28895U 05043F 26035.95701829 .00002744 00000-0 44319-3 0 9992 2 28895 98.2776 188.9782 0013162 264.4865 95.4840 14.72167973 82292 CO-65 1 32785U 08021C 26036.20239889 .00009687 00000-0 63459-3 0 9994 2 32785 97.8164 15.1176 0011072 112.7796 247.4602 15.07886899965294 CO-66 1 32791U 08021J 26036.25027892 .00030470 00000-0 11273-2 0 9995 2 32791 97.7490 28.3779 0005438 70.7136 289.4690 15.27625169967116 RS-30 1 32953U 08025A 26036.27500330 .00000004 00000-0 -38376-4 0 9990 2 32953 82.4991 77.4992 0018484 237.1669 122.7632 12.43174650803304 SRMSAT 1 37841U 11058D 26035.97710499 .00000490 00000-0 12221-3 0 9994 2 37841 19.9710 139.6915 0011595 188.9428 328.1612 14.11535060739117 ZACUBE-1 1 39417U 13066B 26036.11260409 .00009870 00000-0 78610-3 0 9999 2 39417 97.8172 357.7837 0041021 332.5270 27.3784 14.99905630660920 Delfi-N3xt 1 39428U 13066N 26036.25077548 .00015751 00000-0 14327-2 0 9995 2 39428 97.8352 316.8765 0075619 285.9294 73.3602 14.93100328654923 GOMX-1 1 39430U 13066Q 26036.26655045 .00002257 00000-0 34593-3 0 9998 2 39430 97.6574 244.9915 0130448 140.6734 220.4036 14.68950614650549 LO-74 1 39440U 13066AA 26036.12015738 .00006378 00000-0 60411-3 0 9999 2 39440 97.8774 344.7644 0060650 104.6678 256.1274 14.92558288657282 AO-73 1 39444U 13066AE 26035.85259502 .00012699 00000-0 83378-3 0 9991 2 39444 97.8143 4.8634 0036210 295.2268 64.5207 15.07236015659711 DTUSAT-2 1 40030U 14033W 26035.92677734 .00012479 00000-0 71233-3 0 9991 2 40030 98.0812 25.5056 0007363 339.0374 21.0552 15.12874900632674 EO-80 1 40032U 14033Y 26036.19810331 .00013600 00000-0 77307-3 0 9990 2 40032 98.0696 25.1128 0005712 264.4157 95.6421 15.13010839632696 LILACSAT-2 1 40908U 15049K 26036.24576388 .00025318 00000-0 50559-3 0 9996 2 40908 97.4853 68.3666 0008105 25.3120 334.8525 15.46783482575321 Horyu-4 1 41340U 16012D 26036.02940090 .00088719 00000-0 11494-2 0 9997 2 41340 30.9925 295.4710 0002225 48.0307 312.0534 15.57485893550006 Lapan A3 1 41603U 16040E 26036.30626692 .00005775 00000-0 18844-3 0 9998 2 41603 97.1459 36.9053 0012159 122.7864 237.4551 15.32085707534619 CAS-2T 1 41847U 16066G 26036.21753268 .00002724 00000-0 39033-3 0 9990 2 41847 98.3948 113.4166 0343305 169.7009 191.1457 14.44349037485744 TechnoSat 1 42829U 17042E 26036.03000762 .00005790 00000-0 42213-3 0 9990 2 42829 97.4098 198.9315 0017953 179.4813 180.6435 15.03966911466833 AO-91 1 43017U 17073E 26036.06900093 .00012056 00000-0 54921-3 0 9995 2 43017 97.4898 266.0622 0159099 64.1463 297.6076 15.10127368445434 S-Net D 1 43186U 18014G 26036.18711624 .00008844 00000-0 47404-3 0 9999 2 43186 97.5468 301.8638 0010217 110.4785 249.7544 15.15180456438768 S-Net B 1 43187U 18014H 26036.19608971 .00009195 00000-0 49295-3 0 9991 2 43187 97.5474 301.8551 0010930 106.8976 253.3455 15.15153542438761 S-Net A 1 43188U 18014J 26036.18660042 .00008787 00000-0 47083-3 0 9997 2 43188 97.5484 302.0309 0010831 107.4834 252.7582 15.15186224438764 S-Net C 1 43189U 18014K 26036.19927755 .00009308 00000-0 49888-3 0 9991 2 43189 97.5500 302.0976 0012284 101.7898 258.4713 15.15145746437318 Ten-Koh 1 43677U 18084G 26035.93932165 .00004764 00000-0 36618-3 0 9990 2 43677 98.0719 222.7650 0009228 201.3825 158.7014 15.02209867396306 PO-101 1 43678U 18084H 26036.29951521 .00001951 00000-0 16288-3 0 9994 2 43678 98.1067 227.0050 0008231 228.4097 131.6421 14.99798305396442 QO-100 1 43700U 18090A 26036.27586998 .00000000 00000-0 00000-0 0 9993 2 43700 0.0158 116.0485 0002393 245.5952 258.8732 1.00270300 26358 MinXSS-2 1 43758U 18099A 26036.14550712 .00039588 00000-0 10520-2 0 9999 2 43758 97.4700 109.3562 0008961 28.1030 332.0696 15.38112381393771 AO-95 1 43770U 18099N 26036.14097157 .00016501 00000-0 69227-3 0 9991 2 43770 97.4574 97.0528 0010687 93.5660 266.6799 15.23507756393091 SNUSat 2 1 43782U 18099AA 26035.87901329 .00012835 00000-0 60616-3 0 9997 2 43782 97.4261 91.3774 0011719 45.3482 314.8706 15.19501017392925 SnugLite 1 43784U 18099AC 26036.11387894 .00017232 00000-0 71505-3 0 9997 2 43784 97.4070 91.8634 0003941 54.6225 305.5380 15.23913698393182 ITASat 1 1 43786U 18099AE 26036.13196098 .00010097 00000-0 51101-3 0 9997 2 43786 97.4233 90.3216 0014686 93.2386 267.0528 15.17114524392875 EAGLET 1 1 43790U 18099AJ 26036.05885173 .00005920 00000-0 34997-3 0 9995 2 43790 97.4433 89.1981 0013025 83.7824 276.4890 15.11769532392363 ESEO 1 43792U 18099AL 26036.05152967 .00002876 00000-0 21324-3 0 9992 2 43792 97.4173 79.0069 0013576 67.7962 292.4703 15.03775376391945 JO-97 1 43803U 18099AX 26036.10883657 .00024017 00000-0 85224-3 0 9998 2 43803 97.4323 98.8040 0006655 30.8568 329.3062 15.29035299393419 Suomi 100 1 43804U 18099AY 26036.14805629 .00017668 00000-0 70782-3 0 9993 2 43804 97.4389 97.2216 0011201 33.1552 327.0386 15.25041760393276 ISAT 1 43879U 18111D 26036.23113831 .00076611 00000-0 14932-2 0 9994 2 43879 97.5909 323.3201 0008943 71.5070 288.7150 15.47220813390657 UWE-4 1 43880U 18111E 26036.22685774 .00043059 00000-0 11543-2 0 9990 2 43880 97.5867 319.3957 0012006 80.9759 279.2843 15.37789078390441 Sparrow 1 43881U 18111F 26035.73679831 .00079092 00000-0 13914-2 0 9993 2 43881 97.6115 326.9166 0008062 97.1139 263.1029 15.50162937390716 Prox-1 1 44339U 19036A 26036.03137650 .00019324 00000-0 20742-2 0 9990 2 44339 23.9949 274.7125 0007036 308.6323 51.3546 14.86981741353756 Taurus 1 1 44530U 19059C 26036.30545035 .00008963 00000-0 14932-2 0 9999 2 44530 98.6261 193.2222 0008286 5.2310 354.8979 14.70241145339252 TO-108 1 44881U 19093C 26036.30356491 .00002070 00000-0 24100-3 0 9994 2 44881 97.7676 111.6990 0014120 155.2378 204.9518 14.86265694331822 FloripaSat 1 1 44885U 19093G 26036.28286700 .00009627 00000-0 73423-3 0 9997 2 44885 97.7898 129.7305 0011948 152.8602 207.3249 15.02177686332832 RS-44 1 44909U 19096E 26036.03745374 .00000006 00000-0 -29213-4 0 9999 2 44909 82.5174 67.5229 0218664 93.3664 269.2475 12.79746835285444 SALSAT 1 46495U 20068K 26036.25353565 .00014295 00000-0 53298-3 0 9996 2 46495 97.8830 31.5262 0011802 52.0614 308.1689 15.27489317295204 CSS (TIANHE-1) 1 48274U 21035A 26036.19244547 .00018681 00000-0 23497-3 0 9991 2 48274 41.4676 45.6780 0005707 3.1658 356.9216 15.59205280272535 CUTE 1 49263U 21088D 26036.20201312 .00047151 00000-0 50164-3 0 9998 2 49263 97.4268 126.6586 0004580 74.9114 285.2651 15.63878293241793 TeikyoSat 4 1 49396U 21102B 26036.05108042 .00003024 00000-0 19508-3 0 9999 2 49396 97.3833 70.6031 0013057 34.2964 325.9106 15.08951060232791 Z-Sat 1 49399U 21102E 26036.33675851 .00005204 00000-0 26521-3 0 9995 2 49399 97.3508 75.6400 0016715 353.4413 6.6599 15.17077903233444 KOSEN 1 1 49402U 21102H 26036.06402871 .00011410 00000-0 46268-3 0 9996 2 49402 97.3387 80.8401 0013118 319.6192 40.4071 15.24712246233877 HO-113 1 50466U 21131B 26036.29062755 .00000682 00000-0 22483-3 0 9990 2 50466 98.4999 129.4284 0005032 126.8919 233.2732 14.41205844216113 SNUGLITE 2 1 52899U 22065F 26036.14045833 .00001679 00000-0 32912-3 0 9996 2 52899 98.1975 181.3878 0008584 80.8583 279.3590 14.64034045191677 UmKA 1 (RS40S) 1 57172U 23091G 26036.30061106 .00010538 00000-0 50425-3 0 9997 2 57172 97.5245 95.5374 0012450 214.3287 145.7144 15.19093589143978 CubeBel-2 (EU11S) 1 57175U 23091K 26036.25253187 .00019618 00000-0 76892-3 0 9990 2 57175 97.5239 98.4976 0009874 214.5930 145.4666 15.25766207144166 RS-38S 1 57189U 23091Z 26036.23799556 .00026101 00000-0 85788-3 0 9997 2 57189 97.5262 103.4134 0008159 173.1245 187.0109 15.31498381144463 SONATE-2 1 59112U 24043Q 26035.92865080 .00041636 00000-0 77265-3 0 9995 2 59112 97.5360 179.3592 0008233 332.0238 28.0568 15.48801476107352 MO-122 1 60209U 24125G 26036.01248220 .00050526 00000-0 87519-3 0 9998 2 60209 97.2484 251.5749 0013400 352.1775 7.9266 15.50657115 89007 GRBBeta 1 60237U 24128C 26036.09750942 .00006571 00000-0 45565-3 0 9995 2 60237 61.9915 319.3047 0053988 107.4399 253.2606 15.05403849 86371 Curium One 1 60242U 24128H 26036.31468306 .00014997 00000-0 89585-3 0 9997 2 60242 61.9804 312.0483 0053995 104.4313 256.2782 15.10105894 86529 ROBUSTA-3A 1 60243U 24128J 26036.21066322 .00015607 00000-0 94916-3 0 9992 2 60243 61.9883 314.2011 0054427 101.8050 258.9157 15.09413407 86488 CatSat 1 60246U 24125J 26036.02422444 .00054734 00000-0 11161-2 0 9996 2 60246 97.2240 247.9924 0029282 312.0488 47.8270 15.45568839 86893 HYPERVIEW-1G (RS66S) 1 61772U 24199AP 26036.27507681 .00078156 00000-0 12077-2 0 9997 2 61772 97.3142 271.5960 0010973 47.1689 313.0485 15.53771163114061 AO-123 1 61781U 24199AY 26036.25499794 .00015585 00000-0 48366-3 0 9998 2 61781 97.3198 266.1462 0015893 63.9433 296.3443 15.33350646113690 HADES-R (SO-124) 1 62690U 25009CK 26032.99082620 .05664363 23962-5 28116-2 0 9998 2 62690 97.3536 123.7794 0009923 302.1245 57.9081 16.20799086 58844 HYDRA-T 1 62692U 25009CM 26028.19742799 .10589489 24473-5 20739-2 0 9999 2 62692 97.3569 119.0624 0010828 297.3030 62.7162 16.31546071 58115 JINJUSat 1B 1 63210U 25052A 26035.95268662 .00022967 00000-0 81891-3 0 9992 2 63210 97.4165 292.8441 0003359 160.7165 199.4203 15.28901955 49862 NUSHSAT 1 1 63211U 25052B 26036.16583553 .00027916 00000-0 95051-3 0 9998 2 63211 97.4145 293.2666 0003148 160.8397 199.2963 15.30367135 49915 TEVEL2-4 1 63213U 25052D 26036.19364347 .00030300 00000-0 10586-2 0 9991 2 63213 97.4063 292.7262 0001955 167.4142 192.7147 15.29514182 49902 TEVEL2-5 1 63214U 25052E 26036.13679975 .00026158 00000-0 91785-3 0 9999 2 63214 97.4062 292.6486 0001909 168.1679 191.9607 15.29403533 49898 TEVEL2-6 1 63215U 25052F 26036.14572493 .00025928 00000-0 91101-3 0 9994 2 63215 97.4064 292.6438 0001916 170.1673 189.9605 15.29361345 49892 TEVEL2-1 1 63217U 25052H 26036.13547139 .00025866 00000-0 91958-3 0 9995 2 63217 97.4039 292.3974 0001532 191.9962 168.1242 15.28978078 49885 TEVEL2-3 1 63218U 25052J 26036.13374584 .00025861 00000-0 91856-3 0 9990 2 63218 97.4035 292.4051 0001509 189.8885 170.2326 15.29008084 49882 TEVEL2-2 1 63219U 25052K 26036.13616517 .00025580 00000-0 90943-3 0 9990 2 63219 97.4041 292.3988 0001499 192.9491 167.1711 15.28979420 49887 TEVEL2-9 1 63237U 25052AD 26035.69602024 .00019633 00000-0 73479-3 0 9995 2 63237 97.4104 291.5858 0004615 247.8284 112.2465 15.27335107 49779 TEVEL2-7 1 63238U 25052AE 26035.97803289 .00023651 00000-0 88881-3 0 9991 2 63238 97.4104 291.8275 0004765 246.3593 113.7146 15.27159757 49811 TEVEL2-8 1 63239U 25052AF 26036.11560987 .00023613 00000-0 88789-3 0 9999 2 63239 97.4103 291.9456 0004753 246.1181 113.9561 15.27141419 49832 HYDRA-W 1 63490U 25052BL 26036.25468213 .00179003 00000-0 28505-2 0 9996 2 63490 97.4002 296.2040 0003447 196.4512 163.6630 15.52623334 50144 HADES-ICM (SO-125) 1 63492U 25052BN 26035.69655488 .00097873 00000-0 18033-2 0 9996 2 63492 97.4006 295.1501 0003690 214.9443 145.1566 15.48794083 50024 Dragonfly 1 65729U 98067XH 26031.05194254 .08662331 12285-4 96629-3 0 9997 2 65729 51.6000 237.6139 0006569 265.0285 94.9990 16.36242872 20999 RSP-03 1 65732U 98067XL 26035.85137271 .00659480 19702-3 15177-2 0 9990 2 65732 51.6174 216.5141 0006037 265.5865 94.4454 15.96655854 21717 BOTAN 1 65942U 98067XP 26035.73745111 .00298019 00000-0 13964-2 0 9995 2 65942 51.6187 223.3215 0005573 248.4699 111.5709 15.81813889 18359 CEVROSAT1 1 66309U 25248S 26035.22095824 .00006421 00000-0 31541-3 0 9993 2 66309 45.4050 113.8451 0002705 351.6710 8.4130 15.18880270 14285 SPIRONE 1 66657U 25274H 26035.70898811 .00003171 00000-0 31109-3 0 9997 2 66657 97.7429 327.0120 0013977 93.9154 266.3664 14.92848569 10452 K-HERO 1 66660U 25274L 26036.08774830 .00004160 00000-0 40129-3 0 9998 2 66660 97.7435 327.4438 0015946 97.1956 263.1077 14.93326394 10511 SNUGLITE-III DURI 1 66661U 25274M 26036.21570285 .00004052 00000-0 39001-3 0 9999 2 66661 97.7430 327.5812 0016496 98.0409 262.2683 14.93431388 10533 SilverSat 1 66909U 98067XV 26035.73096155 .00111974 00000-0 12469-2 0 9999 2 66909 51.6265 232.3240 0002733 198.6299 161.4595 15.61983699 10023 SAKHACUBE-CHOLBON 1 67290U 25313AU 26036.28090719 .00017435 00000-0 76200-3 0 9999 2 67290 97.4066 113.1513 0011112 99.6262 260.6230 15.22100624 5897 QMR-KWT 1 67291U 25313AV 26036.27808964 .00023606 00000-0 10212-2 0 9995 2 67291 97.4066 113.1550 0010814 99.3100 260.9360 15.22388577 5897 IO-86 1 40931U 25360.30710720 .00000000 00000-0 12800-3 0 00 2 40931 6.0006 332.5373 0012733 338.8432 8.1437 14.79075515 01